[[{"header":{"parameterUnit":"m.s-1","parameterCategory":1,"la1":30.2991,"la2":30.254,"lo1":-89.0895,"lo2":-89.0444,"dy":0.0017,"dx":0.0017,"nx":28,"ny":28,"refTime":"2025-01-22T03:00:00:Z","depth":0,"parameterNumber":2,"parameterNumberName":"U-component_of_WINDS"},"data":[0,0,0,0,0,0,0,0,0,0,0,0,0,0,0,0,0,0,0,0,0,0,0,0,0,0,0,0,0,0,0,0,0,0,0,0,0,0,0,0,0,0,0,0,0,0,0,0,0,0,0,0,0,0,0,0,0,0,-0.9927,-0.9927,0,-0.9966,-0.9967,-0.9967,-0.9933,-0.9932,-0.9931,-0.9929,-0.9974,-0.9976,-0.9979,0,0,0,0,0,0,0,0,0,0,0,0,0,-0.9827,-0.9829,-0.9927,-0.9927,-0.9928,-0.9966,-0.9967,-0.9967,-0.9934,-0.9932,-0.993,-0.9929,-0.9973,-0.9976,-0.9979,0,0,0,0,0,0,0,0,0,0,0,0,0,-0.9869,-0.9829,-0.9927,-0.9916,-0.9915,-0.9966,-0.9967,-0.9967,-0.9934,-0.9932,-0.993,-0.9928,-0.9972,-0.9975,-0.9979,-1.0045,0,0,-0.9991,-0.9992,0,0,0,0,0,0,0,0,-0.9866,-0.9872,-0.9917,-0.9916,-0.9916,-0.9943,-0.9948,-0.9993,-0.9935,-0.9927,-0.9929,-0.9927,-0.9965,-0.9969,-0.9982,-1.0047,-1.0049,-0.9991,-0.9993,-0.9995,-0.9996,0,0,0,0,0,0,0,-0.9863,-0.9871,-0.9943,-0.9917,-0.9917,-0.991,-0.9914,-0.9956,-0.9958,-0.9927,-0.9925,-0.993,-0.9965,-0.9978,-0.9982,-1.0049,-0.9991,-0.9994,-0.9996,-0.9998,-1.0171,-1.0173,0,0,0,0,0,0,-0.9861,-0.9868,-0.9941,-0.9944,-0.9885,-0.9913,-0.9917,-0.9936,-0.9957,-0.9958,-0.9932,-0.9928,-0.9973,-0.9978,-0.9984,-1.0062,-0.9995,-0.9998,-1.0,-1.0169,-1.0172,-1.0174,0,0,0,0,0,0,-0.9859,-0.9868,-0.994,-0.9905,-0.9914,-0.9917,-0.9939,-0.9938,-0.9951,-0.996,-0.9961,-0.9945,-0.9971,-0.9979,-1.003,-1.0063,-1.0,-1.0003,-1.0166,-1.017,-1.0173,-1.0219,0,0,0,0,0,0,-0.9856,-0.9867,-0.9891,-0.9906,-0.9916,-0.9984,-0.9941,-0.994,-0.9958,-0.9953,-0.9973,-0.9974,-0.997,-1.0024,-1.0033,-1.0067,-1.0006,-1.0163,-1.0168,-1.0172,-1.0215,-1.0224,-1.0232,0,0,0,0,0,-0.9853,-0.9903,-0.9893,-0.9902,-0.9946,-0.9986,-0.9991,-0.9985,-0.996,-0.9985,-0.9991,-0.9973,-1.0058,-1.003,-1.004,-1.0075,-1.0161,-1.0166,-1.0171,-1.0211,-1.0222,-1.0232,0,0,0,0,0,0,-0.9894,-0.9905,-0.9893,-0.995,-0.9967,-0.998,-1.0011,-0.9997,-1.0022,-1.0017,-1.001,-1.0014,-1.0068,-1.0077,-1.0045,-1.014,-1.0106,-1.0113,-1.0132,-1.0143,-1.0152,-1.0148,-1.0009,0,0,0,0,0,-0.9909,-0.9939,-0.9948,-0.9998,-1.0007,-1.0007,-1.0025,-1.0018,-1.0036,-1.0043,-1.0053,-1.0072,-1.0103,-1.0124,-1.0153,-1.0216,-1.022,-1.0246,-1.0254,-1.0261,-1.0268,-1.0303,-1.0314,-1.0192,-1.0192,-1.0191,0,0,-0.9942,-0.9952,-0.9971,-1.0006,-1.0018,-1.0051,-1.0014,-1.005,-1.0075,-1.0049,-1.0098,-1.0106,-1.0127,-1.0184,-1.021,-1.0193,-1.0303,-1.0268,-1.0273,-1.0276,-1.031,-1.0321,-1.0331,-1.0195,-1.0195,-1.0194,0,0,-1.0017,-1.0028,-1.007,-1.0083,-1.0102,-1.0102,-1.0112,-1.0128,-1.0131,-1.018,-1.0162,-1.0192,-1.0245,-1.0261,-1.0276,-1.0359,-1.0344,-1.0369,-1.0413,-1.0447,-1.0457,-1.0466,-1.0496,-1.0507,-1.0375,-1.0375,-1.0375,0,-1.0056,-1.0103,-1.0094,-1.0131,-1.0148,-1.0125,-1.0169,-1.0182,-1.021,-1.0223,-1.0203,-1.027,-1.0282,-1.0344,-1.0364,-1.0377,-1.0389,-1.0366,-1.0456,-1.0465,-1.0473,-1.0501,-1.0513,-1.0378,-1.0378,-1.0378,-1.0377,0,-1.0149,-1.0183,-1.0215,-1.0241,-1.0261,-1.0302,-1.03,-1.0322,-1.0314,-1.0317,-1.0367,-1.0381,-1.0413,-1.0427,-1.042,-1.0488,-1.0477,-1.0457,-1.0422,-1.0487,-1.0514,-1.0525,-1.0382,-1.0381,-1.038,-1.038,0,0,-1.0252,-1.0272,-1.0284,-1.0296,-1.0316,-1.0342,-1.0383,-1.0412,-1.0431,-1.0452,-1.0486,-1.0532,-1.0514,-1.0531,-1.0526,-1.0556,-1.0621,-1.0532,-1.0533,-1.0549,-1.0698,-1.0713,-1.0725,-1.0611,-1.0613,-1.0615,-1.0696,0,-1.0328,-1.0396,-1.039,-1.0455,-1.0486,-1.0466,-1.0501,-1.0518,-1.0522,-1.055,-1.0555,-1.0588,-1.0561,-1.0571,-1.06,-1.0607,-1.0651,-1.0601,-1.0644,-1.0646,-1.064,-1.0739,-1.0755,-1.0831,-1.0706,-1.0708,-1.0709,0,-1.0427,-1.045,-1.0518,-1.0533,-1.0546,-1.0577,-1.0605,-1.0631,-1.0651,-1.0652,-1.0671,-1.0661,-1.0703,-1.0667,-1.0725,-1.0691,-1.0709,-1.0715,-1.0718,-1.0722,-1.0682,-1.0746,-1.0855,-1.0866,-1.0726,-1.0725,-1.0723,0,-1.0495,-1.0543,-1.059,-1.0601,-1.062,-1.0643,-1.0652,-1.0669,-1.0687,-1.0712,-1.0724,-1.0753,-1.077,-1.0793,-1.0792,-1.0766,-1.0852,-1.0816,-1.0855,-1.0855,-1.0874,-1.0873,-1.0987,-1.0885,-1.0885,-1.0884,-1.0884,0,-1.0582,-1.0624,-1.0621,-1.065,-1.0698,-1.069,-1.0738,-1.0745,-1.076,-1.0791,-1.0776,-1.0806,-1.0802,-1.0832,-1.0832,-1.0881,-1.0888,-1.0891,-1.0891,-1.0893,-1.0892,-1.0904,-1.0899,-1.0887,-1.0887,-1.0886,-1.0886,0,-1.0666,-1.0665,-1.0715,-1.0729,-1.0733,-1.0768,-1.078,-1.0809,-1.0811,-1.0851,-1.086,-1.0865,-1.09,-1.0901,-1.0941,-1.0941,-1.1001,-1.0994,-1.0994,-1.0993,-1.1032,-1.1028,-1.1158,-1.1175,-1.1062,-1.1063,-1.1064,0,-1.0721,-1.0753,-1.077,-1.0789,-1.08,-1.0831,-1.0849,-1.0844,-1.0864,-1.0889,-1.0915,-1.0948,-1.0974,-1.1031,-1.104,-1.1071,-1.1065,-1.1108,-1.107,-1.1071,-1.1066,-1.1065,-1.1068,-1.1116,-1.1117,-1.1118,-1.1119,0,-1.0819,-1.0818,-1.0844,-1.0872,-1.0894,-1.0915,-1.0935,-1.0952,-1.0949,-1.0973,-1.1008,-1.1029,-1.107,-1.1103,-1.1134,-1.1145,-1.1132,-1.1131,-1.1142,-1.1145,-1.1143,-1.1145,-1.1015,-1.1128,-1.1127,-1.1127,-1.1126,-1.1126,-1.0891,-1.0919,-1.0935,-1.0966,-1.098,-1.0999,-1.1026,-1.1032,-1.1061,-1.1093,-1.1089,-1.1128,-1.1147,-1.1187,-1.12,-1.1232,-1.1217,-1.1233,-1.1237,-1.1241,-1.1245,-1.1138,-1.1237,-1.1237,-1.1237,-1.1237,-1.1237,0,-1.0989,-1.0998,-1.1027,-1.1054,-1.1079,-1.1064,-1.1085,-1.1107,-1.1141,-1.116,-1.1186,-1.1227,-1.126,-1.127,-1.1303,-1.1326,-1.1321,-1.1335,-1.1333,-1.1336,-1.1256,-1.1244,-1.1338,-1.1338,-1.1338,-1.1338,-1.1338,-1.1338,-1.1043,-1.1089,-1.109,-1.1143,-1.1153,-1.119,-1.1204,-1.1222,-1.1237,-1.1282,-1.1309,-1.1316,-1.1332,-1.1365,-1.1395,-1.1397,-1.141,-1.1426,-1.1427,-1.1352,-1.1342,-1.1332,-1.132,-1.1429,-1.1429,-1.1504,-1.1505,-1.1505]},{"header":{"parameterUnit":"m.s-1","parameterCategory":1,"la1":30.2991,"la2":30.254,"lo1":-89.0895,"lo2":-89.0444,"dy":0.0017,"dx":0.0017,"nx":28,"ny":28,"refTime":"2025-01-22T03:00:00:Z","depth":0,"parameterNumber":3,"parameterNumberName":"V-component_of_WINDS"},"data":[0,0,0,0,0,0,0,0,0,0,0,0,0,0,0,0,0,0,0,0,0,0,0,0,0,0,0,0,0,0,0,0,0,0,0,0,0,0,0,0,0,0,0,0,0,0,0,0,0,0,0,0,0,0,0,0,0,0,1.4651,1.465,0,1.4626,1.4626,1.4626,1.4617,1.4617,1.4617,1.4617,1.459,1.4589,1.4589,0,0,0,0,0,0,0,0,0,0,0,0,0,1.4688,1.4687,1.4651,1.465,1.465,1.4626,1.4626,1.4626,1.4617,1.4617,1.4617,1.4617,1.459,1.4589,1.4588,0,0,0,0,0,0,0,0,0,0,0,0,0,1.4668,1.4687,1.4651,1.4643,1.4642,1.4626,1.4626,1.4625,1.4617,1.4617,1.4617,1.4618,1.4591,1.459,1.4588,1.4578,0,0,1.4585,1.4584,0,0,0,0,0,0,0,0,1.4669,1.4667,1.4645,1.4644,1.4643,1.4625,1.4629,1.4609,1.4617,1.4627,1.4617,1.4618,1.4601,1.4599,1.4594,1.4576,1.4575,1.4584,1.4584,1.4583,1.4583,0,0,0,0,0,0,0,1.4671,1.4668,1.4641,1.4644,1.4643,1.464,1.4637,1.4625,1.4613,1.4626,1.4625,1.4622,1.4601,1.4596,1.4594,1.4575,1.4584,1.4583,1.4583,1.4582,1.4545,1.4545,0,0,0,0,0,0,1.4674,1.4669,1.4642,1.464,1.4657,1.4639,1.4636,1.463,1.4614,1.4611,1.4622,1.4622,1.4598,1.4595,1.4593,1.4578,1.4583,1.4582,1.4581,1.4546,1.4545,1.4545,0,0,0,0,0,0,1.4675,1.4671,1.4643,1.4654,1.4651,1.4638,1.4632,1.463,1.4624,1.4611,1.4609,1.4619,1.4598,1.4594,1.4581,1.4577,1.4581,1.458,1.4546,1.4545,1.4545,1.455,0,0,0,0,0,0,1.4676,1.4672,1.4668,1.4654,1.465,1.4633,1.4632,1.4629,1.4623,1.4622,1.4607,1.4605,1.4597,1.4583,1.458,1.4576,1.4579,1.4546,1.4546,1.4545,1.455,1.455,1.4549,0,0,0,0,0,1.4677,1.467,1.4668,1.4665,1.4646,1.4632,1.463,1.4622,1.4622,1.4618,1.4609,1.4605,1.4578,1.4582,1.4578,1.4573,1.4546,1.4546,1.4545,1.455,1.455,1.4549,0,0,0,0,0,0,1.4684,1.4668,1.4666,1.4655,1.4645,1.4631,1.4626,1.4622,1.4611,1.4611,1.4601,1.4598,1.4585,1.4578,1.4582,1.4561,1.4562,1.4561,1.4567,1.4566,1.4566,1.4568,1.4578,0,0,0,0,0,1.4684,1.4675,1.4662,1.4654,1.4649,1.4638,1.4632,1.4627,1.4616,1.4612,1.4602,1.4591,1.458,1.4573,1.4562,1.4549,1.4545,1.4543,1.4543,1.4543,1.4542,1.4533,1.4532,1.4543,1.4543,1.4543,0,0,1.4684,1.4675,1.467,1.4655,1.4646,1.4637,1.4635,1.4625,1.4617,1.461,1.4597,1.4589,1.4576,1.4563,1.4557,1.4557,1.4538,1.4542,1.4542,1.4541,1.4533,1.4532,1.4531,1.4543,1.4543,1.4543,0,0,1.468,1.4672,1.4664,1.4655,1.4643,1.4636,1.4634,1.462,1.4615,1.4602,1.4596,1.4586,1.4568,1.4558,1.4551,1.4542,1.4537,1.4538,1.4537,1.4529,1.4528,1.4527,1.4523,1.4521,1.4537,1.4537,1.4537,0,1.4681,1.4667,1.466,1.465,1.4643,1.4636,1.4627,1.4619,1.4603,1.4598,1.4599,1.4574,1.4565,1.4549,1.4547,1.4541,1.4538,1.454,1.4529,1.4528,1.4527,1.4523,1.4521,1.4538,1.4538,1.4538,1.4538,0,1.467,1.466,1.4654,1.464,1.4632,1.4623,1.4613,1.4606,1.4601,1.4593,1.4579,1.4568,1.4554,1.455,1.4545,1.4532,1.4532,1.4531,1.4531,1.4526,1.4522,1.452,1.4538,1.4538,1.4538,1.4538,0,0,1.4669,1.465,1.4648,1.4641,1.4627,1.4618,1.4608,1.4595,1.4589,1.4578,1.4568,1.4552,1.455,1.4542,1.4536,1.4528,1.452,1.4527,1.4527,1.4526,1.4505,1.4506,1.4504,1.4518,1.4517,1.4517,1.4506,0,1.4662,1.4645,1.4637,1.4622,1.4612,1.4605,1.4596,1.4585,1.4577,1.4567,1.4558,1.4547,1.4546,1.454,1.4533,1.4523,1.4516,1.4524,1.4507,1.4507,1.4511,1.4502,1.4504,1.4494,1.4504,1.4504,1.4504,0,1.4652,1.4642,1.4626,1.4612,1.4607,1.4599,1.4586,1.4577,1.4564,1.4559,1.4549,1.4543,1.4531,1.4532,1.4514,1.4519,1.4512,1.4506,1.4505,1.4503,1.4505,1.4499,1.449,1.4489,1.4501,1.4501,1.4502,0,1.4653,1.4635,1.4623,1.4617,1.46,1.4594,1.4587,1.4575,1.4567,1.4555,1.4549,1.4536,1.4528,1.4518,1.4507,1.4509,1.449,1.4491,1.4484,1.4485,1.448,1.4481,1.447,1.4477,1.4477,1.4477,1.4477,0,1.4646,1.4637,1.4623,1.4615,1.4604,1.4594,1.4583,1.4575,1.4564,1.4554,1.4546,1.4537,1.4524,1.4513,1.4505,1.449,1.4487,1.4482,1.448,1.4482,1.4483,1.4477,1.4477,1.4476,1.4476,1.4476,1.4477,0,1.4645,1.4635,1.4621,1.4606,1.4602,1.4595,1.4581,1.4573,1.4565,1.4552,1.4548,1.4535,1.4521,1.451,1.4492,1.4486,1.4471,1.4469,1.4475,1.4474,1.4468,1.4469,1.4453,1.4449,1.4459,1.4459,1.4459,0,1.4641,1.4634,1.4618,1.4611,1.4603,1.4592,1.4584,1.4574,1.4566,1.455,1.4543,1.4529,1.4517,1.4495,1.4483,1.4468,1.4466,1.4461,1.4463,1.4466,1.4464,1.4465,1.4463,1.446,1.446,1.446,1.446,0,1.4635,1.463,1.4619,1.4606,1.4597,1.4586,1.4575,1.457,1.4557,1.4548,1.4534,1.4525,1.4506,1.4491,1.4475,1.4466,1.4461,1.446,1.4457,1.446,1.4463,1.446,1.4474,1.446,1.446,1.446,1.446,1.446,1.4632,1.4624,1.4612,1.4599,1.459,1.4579,1.4571,1.4561,1.455,1.4534,1.4528,1.4513,1.4499,1.4478,1.4468,1.4456,1.4455,1.4452,1.4451,1.4451,1.445,1.4466,1.4453,1.4453,1.4453,1.4453,1.4453,0,1.4625,1.4616,1.4605,1.459,1.4579,1.4576,1.4563,1.4554,1.4542,1.4529,1.4518,1.4501,1.4486,1.4473,1.4457,1.4449,1.4446,1.4446,1.4446,1.4444,1.4452,1.4455,1.4448,1.4448,1.4448,1.4448,1.4448,1.4448,1.462,1.4607,1.4601,1.4582,1.4573,1.4559,1.4552,1.4542,1.4532,1.4513,1.4501,1.4493,1.4479,1.4463,1.4449,1.4445,1.4439,1.4439,1.4434,1.4443,1.4443,1.4444,1.4447,1.4438,1.4438,1.4427,1.4427,1.4427]}]]